Regional Weather Roundup
Issued by NWS

Home | Current Version | Previous Version | Text Only | Print | Product List | Glossary Off
Versions: 1 2 3 4 5 6 7 8 9 10 11 12 13 14 15 16 17 18 19 20 21 22 23 24 25 26 27

000
ASUS45 KBOU 281107
RWRCO

WEATHER ROUNDUP FOR COLORADO
NATIONAL WEATHER SERVICE DENVER/BOULDER CO
500 AM MDT SUN AUG 28 2016

NOTE: "FAIR" INDICATES FEW OR NO CLOUDS BELOW 12000 FEET WITH NO
SIGNIFICANT WEATHER AND/OR OBSTRUCTIONS TO VISIBILITY.

COZ001>005-013-030-031-281200-
...NORTHWEST COLORADO...

CITY           SKY/WX    TMP DP  RH WIND       PRES   REMARKS
CRAIG          FAIR      42  37  82 CALM      30.27R
HAYDEN         FAIR      46  30  53 E10       30.29R
MEEKER         FAIR      45  40  82 E6        30.29R
MOUNT WERNER   NOT AVBL
STEAMBOAT SPGS FAIR      43  34  71 CALM      30.31S
WALDEN         FAIR      36  30  80 SE6       30.38R
$$

COZ006>008-011-281200-
...WEST CENTRAL VALLEYS...

CITY           SKY/WX    TMP DP  RH WIND       PRES   REMARKS
GRAND JUNCTION FAIR      61  48  62 SE5       30.19R
MONTROSE       CLOUDY    58  45  62 SE8       30.26R
EAGLE          FAIR      50  41  71 CALM      30.32S
RIFLE          FAIR      52  48  86 E3        30.25R
DELTA          NOT AVBL
NUCLA          CLOUDY   N/A N/A N/A E3        30.31S
$$

COZ017>023-064>068-281200-
...SOUTHWEST COLORADO...

CITY           SKY/WX    TMP DP  RH WIND       PRES   REMARKS
DURANGO        FAIR      42  40  92 CALM      30.30R
CORTEZ         FAIR      49  46  90 NE5       30.27R
PAGOSA SPRINGS FAIR      44  43  99 CALM      30.36R
TELLURIDE      CLOUDY    44  43  96 SE3       30.45R
WOLF CREEK PAS FAIR      36  34  93 SW5       30.58S
$$

COZ009-010-012-014-032>034-037-058>063-281200-
...CENTRAL COLORADO...

CITY           SKY/WX    TMP DP  RH WIND       PRES   REMARKS
ASPEN          FAIR      47  42  83 SW6       30.35R
BUENA VISTA    FAIR      48  42  79 CALM      30.36S
COPPER MTN     CLOUDY    45  32  61 CALM      30.59S
BERTHOUD PASS  CLOUDY    37  27  65 N6        30.62S
COTTONWOOD PAS MOCLDY    52  34  50 W5        30.45S
GUNNISON       MOCLDY    48  43  81 N6        30.40R
KREMMLING      FAIR      39  34  81 CALM      30.37S
LEADVILLE      CLOUDY    41  37  86 CALM      30.45S
MONARCH PASS   CLOUDY    39  34  81 SW10      30.66S
SALIDA         FAIR      55  41  60 W5        30.40S
SUNLIGHT       MOCLDY    46  37  71 CALM      30.54R
WILKERSON PASS CLOUDY    46  32  57 N5        30.56F
$$

COZ069>075-281200-
...SAN LUIS VALLEY/SANGRE DE CRISTO MOUNTAINS...

CITY           SKY/WX    TMP DP  RH WIND       PRES   REMARKS
ALAMOSA        FAIR      39  37  92 CALM      30.34R
LA VETA PASS   FAIR      45  36  70 S5        30.46R
SAGUACHE       FAIR      45  41  87 NW10      30.36F
$$

COZ035-036-038>040-281200-
...NORTHERN COLORADO FRONT RANGE...

CITY           SKY/WX    TMP DP  RH WIND       PRES   REMARKS
DENVER INTL AP MOCLDY    62  43  49 SW7       30.14S
DMNS CITY PARK   N/A     62  43  48 SW5       30.14S
AURORA         MOCLDY    61  45  55 SW5       30.16S
FRONT RANGE AP NOT AVBL
ERIE MUNI ARPT NOT AVBL
BOULDER MUN AP FAIR      61  43  51 CALM      30.14S
CENTENNIAL     MOCLDY    65  39  38 SW8       30.17S
BROOMFIELD     FAIR      64  36  34 N5        30.16S
FORT COLLINS   FAIR      52  43  71 CALM      30.13S
LONGMONT       FAIR      57  44  61 W3        30.14F
$$

COZ041-046-047-076>085-087-088-281200-
...PIKES PEAK/PALMER DIVIDE AND SOUTHERN FOOTHILLS...

CITY           SKY/WX    TMP DP  RH WIND       PRES   REMARKS
COLO. SPRINGS  MOCLDY    58  47  66 W3        30.23R
A. F. ACADEMY  CLOUDY    56  48  75 CALM      30.23R
SCHRIEVER AFB  NOT AVBL
ELLICOTT       NOT AVBL
FALCON         LGT RAIN  56  50  81 CALM      30.27R
FORT CARSON    CLOUDY    59  51  72 W3        30.19R
LIMON          FAIR      50  49  96 E3        30.19R
MONUMENT HILL  MOCLDY    55  45  67 SW5       30.27R
TRINIDAD       FAIR      59  49  69 W5        30.20R
$$

COZ042>045-048>051-090-091-281200-
...NORTHEAST COLORADO...

CITY           SKY/WX    TMP DP  RH WIND       PRES   REMARKS
GREELEY ARPT   FAIR      52  46  82 NW6       30.12S
AKRON          FAIR      60  54  80 SW10      30.11S
BURLINGTON     FAIR      63  51  65 SW15      30.12R
WRAY           FAIR      57  57 100 CALM      30.10R
STERLING       FAIR      54  50  87 W5        30.08S
HOLYOKE        FAIR      55  54  94 CALM      30.10R FOG
FORT MORGAN    FAIR      54  48  81 E7        30.12R
$$

COZ086-089-092>099-281200-
...SOUTHEAST COLORADO...

CITY           SKY/WX    TMP DP  RH WIND       PRES   REMARKS
PUEBLO         FAIR      63  54  72 E5        30.13R
LA JUNTA       FAIR      69  53  56 S9        30.11S
LAMAR          FAIR      62  56  80 S3        30.09S
SPRINGFIELD      N/A     56  56 100 SW5       30.15S
$$




USA.gov is the U.S. government's official web portal to all federal, state and local government web resources and services.